STARLINK-35374, 66194

Orbit data source: Space-Track

STARLINK-35374, 66194 is a payload satellite owned by SpaceX/Seattle (US) in LEO that was launched on Sun, 26 Oct 2025 UTC via an FALCON 9 launch vehicle from the Air Force Eastern Test Range (AFETR). Payload-class satellites include a variety of spacecraft equipped with specific instruments for various scientific and technological missions. These include communications satellites like Starlink; space stations such as the ISS; scientific satellites like the Hubble; Earth observation satellites from companies like Planet Labs, Umbra, and HawkEye 360; GPS; miniature CubeSats for education and research; and military/defense satellites.

Loading next visibility...
Identifier
66194, 2025-243T
Orbit
LEO
Country
Flag of USUS
Related business
Manufacturer
SpaceX/Seattle
Mission
Operational Commercial Communications
Bus & Motor
STARLINK V2MO, Unknown motor
Mass
575 kg wet, ~530 kg dry
Launch date (UTC)
2025-10-26 (4 months ago)
Launch vehicle
FALCON 9
Launch site
Air Force Eastern Test Range (AFETR)
Object type
Payload
Rocket body
Debris
Shape & HBR
Box + 2 Pan, 17.7 m
Radar Cross Section
36.964 m²

Expand to show TLE details & history
Last TLE update: 9 hours ago

TLE from 9 hours ago
0 STARLINK-35374
1 66194U 25243T   26061.75733747 -.00001856  00000-0 -50540-4 0  9990
2 66194  53.1575 277.3649 0001025  76.1541 283.9573 15.30202745 19594
Epoch: 2026-03-02T18:10Z
TLE epoch observation values (Epoch: 2026-03-02T18:10:33.957Z)
Latitude
-0.00008°
Longitude
-155.82281°
Altitude
475.937 km
Speed
7.629 km/s
True Right ascension
18h 29m 27s
True Declination
0° 00' 00"
Sunlit
Object was in daylight at epoch
Visualization orbit readout
Latitude
Unknown
Longitude
Unknown
Altitude
Unknown
Speed
Unknown
Apparent Right ascension
Unknown
Apparent Declination
Unknown
Sunlit
N/A
Visualization observer readout
Local Sidereal Time
07:12:23
Azimuth
Unknown
Elevation
Unknown
Doppler factor
Unknown
Orbital elements
Apogee altitude
476.166 km
Perigee altitude
474.761 km
Semi-major axis
6,853.601 km
Eccentricity
0.0001
Inclination
53.1575°
RAAN
277.3649°
Arg. of periapsis
76.1541°
True anomaly
283.9459°
Mean anomaly
283.9573°
Eccentric anomaly
283.9516°
Mean motion
3.8253 °/min
Orbital period
94.11 mins
BSTAR
-0.00005054
Loading maneuver chart data...
Computing Atmospheric mass density...
Loading historical data...
Loading historical data...
Loading historical data...
Loading historical data...
Loading historical data...
Loading historical data...
Loading historical data...

Documentation

Showing up to 5 results
|